Location: LDNL
(36.4545°S, 141.6685°E)
Time: 06:43:27
(UTC+11:00)

A-11 Canister half - Visible Passes

Search period start: 26 January 2022 00:00
Search period end: 05 February 2022 00:00
Orbit: 1516 x 1684 km, 47.2° (Epoch: 24 January)

Date Brightness Start Highest point End Pass type
(mag) Time Alt. Az. Time Alt. Az. Time Alt. Az.
26 Jan 10.6 03:10:35 14° NE 03:12:30 15° ENE 03:17:35 10° E visible
26 Jan 9.3 05:08:47 20° NNW 05:15:58 62° NE 05:25:53 10° ESE visible
27 Jan 10.7 02:49:01 14° NE 02:49:41 14° ENE 02:53:59 10° E visible
27 Jan 9.4 04:47:13 26° NNW 04:53:04 59° NE 05:02:53 10° ESE visible
28 Jan 10.8 02:27:24 12° ENE 02:27:24 12° ENE 02:30:09 10° E visible
28 Jan 9.4 04:25:35 32° NNW 04:30:10 55° NE 04:39:52 10° ESE visible
29 Jan 9.4 04:03:56 38° N 04:07:16 52° NE 04:16:51 10° ESE visible
29 Jan 9.4 06:02:25 10° WNW 06:12:13 66° SSW 06:22:22 10° ESE visible
30 Jan 9.4 03:42:14 43° NNE 03:44:24 48° NE 03:53:50 10° ESE visible
30 Jan 9.3 05:40:26 14° WNW 05:49:13 68° SSW 05:59:23 10° ESE visible
31 Jan 9.4 03:20:30 44° NNE 03:21:31 45° NE 03:30:48 10° ESE visible
31 Jan 9.3 05:18:41 19° WNW 05:26:14 71° SSW 05:36:23 10° ESE visible
01 Feb 9.5 02:58:43 42° NE 02:58:43 42° NE 03:07:46 10° ESE visible
01 Feb 9.2 04:56:54 26° WNW 05:03:15 73° SSW 05:13:24 10° ESE visible
02 Feb 9.7 02:36:55 38° ENE 02:36:55 38° ENE 02:44:42 10° ESE visible
02 Feb 9.1 04:35:06 33° WNW 04:40:17 76° SSW 04:50:26 10° ESE visible
03 Feb 9.9 02:15:04 33° ENE 02:15:04 33° ENE 02:21:38 10° ESE visible
03 Feb 9.1 04:13:15 41° WNW 04:17:19 80° SSW 04:27:27 10° ESE visible
03 Feb 9.9 06:14:06 10° W 06:23:33 47° S 06:33:16 10° ESE visible
04 Feb 10.1 01:53:11 28° E 01:53:11 28° E 01:58:33 10° ESE visible
04 Feb 9.0 03:51:22 52° WNW 03:54:22 83° SSW 04:04:28 10° ESE visible
04 Feb 9.9 05:51:04 10° W 06:00:30 47° S 06:10:14 10° ESE visible
